STARLINK-34371 (64756 NORAD) Tracking and Keplerian Element Data

This shows tracking and keplerian element data for the satellite.

Feedback or suggestion? Click here.




ElementValue
Catalog64756
NameSTARLINK-34371
Epoch Orbit2651
Epoch Day354.10255179
Epoch Year2025
RAAN252.6386
Inclination53.1594
Eccentricity0.0001512
Argument of Perigee69.401
Mean Anonmoly290.7153
Mean Motion15.30204245
Decay Rate0.00013587
L11 64756U 25147B 25354.10255179 .00013587 00000+0 46996-3 0 9996
L22 64756 53.1594 252.6386 0001512 69.4010 290.7153 15.30204245 26515



Live tracking and technical data element details for STARLINK-34371 (NORAD 64756). STARLINK-34371 can be tracked NOW for your location showing map with azimuth and elevation plus other details from your city location.







IsCatalogInMostPopularTable: catalog: 64756, numindb: 5
Update: records affected: 1



GetName: 64756 STARLINK-34371

Hit Count: updated at: Wed, 11 Feb 2026 15:26:40 GMT